Language: 


Des rapports , des résumés tant et plus, au choix de chacun....


Données Historiques de Météogheer
Journalier Rapport pour Décembre 10, 2017 Unitée:  Impériale    Métrique   Les deux
Suivant Jour »
Journalier Hebdomadaire Mensuel Annuel Sur mesure
  Max: Min: Moyenne:
Température: 48.7 °F 32 °F 38.3 °F
Point de rosée: 46.4 °F 33.8 °F 37.4 °F
Humidité: 98% 0% 94%
Vent: 41.6mph 0mph 10.6mph
Rafales: 50.3mph - -
Vent- - SW
Pression: 29.7 in 0 in -
Pluie: 0.77 in    
Historical Graphs
 
 
Données tabulaires pour Décembre 10, 2017
Heure Température Point de rosée Pression Vent Vent Rafales Humidité Pluie Taux (Horaire) Conditions
00:03 34.5 °F 33.8 °F 29.7 in SW 6 mph 7.6 mph 98% 0 in
00:08 34.5 °F 33.8 °F 29.7 in SW 4.9 mph 8.1 mph 98% 0 in
00:13 34.5 °F 33.8 °F 29.7 in WSW 6.3 mph 8.1 mph 98% 0 in
00:18 34.5 °F 33.8 °F 29.7 in SSW 6.3 mph 8.7 mph 98% 0 in
00:23 34.5 °F 33.8 °F 29.7 in WSW 5.6 mph 8.7 mph 98% 0 in
00:28 34.5 °F 33.8 °F 29.7 in SSW 6.3 mph 7.6 mph 98% 0 in
00:33 34.7 °F 35.6 °F 29.7 in WSW 5.8 mph 7.8 mph 98% 0 in
00:38 34.7 °F 35.6 °F 29.7 in SSW 6 mph 7.8 mph 98% 0 in
00:43 34.7 °F 35.6 °F 29.7 in SW 5.4 mph 7.8 mph 98% 0 in
00:53 34.9 °F 35.6 °F 29.7 in SSW 8.7 mph 9.4 mph 98% 0.01 in
01:04 34.9 °F 35.6 °F 29.7 in SW 4 mph 9.4 mph 98% 0.01 in
01:09 34.9 °F 35.6 °F 29.7 in SSW 3.8 mph 9.4 mph 98% 0.01 in
01:24 34.7 °F 35.6 °F 29.7 in Calm   5.4 mph 98% 0.01 in
01:29 34.5 °F 33.8 °F 29.7 in South 4.3 mph 5.6 mph 98% 0.01 in
01:34 34.5 °F 33.8 °F 29.7 in SSW 4.9 mph 7.4 mph 98% 0.01 in
01:39 34.7 °F 35.6 °F 29.7 in South 3.4 mph 7.4 mph 98% 0.01 in
01:44 34.7 °F 35.6 °F 29.6 in South 5.4 mph 5.6 mph 98% 0.01 in
01:49 34.7 °F 35.6 °F 29.6 in Calm   6.3 mph 98% 0 in
01:54 34.7 °F 35.6 °F 29.6 in Calm   6.3 mph 98% 0 in
01:59 34.7 °F 35.6 °F 29.6 in South 4.3 mph 5.8 mph 98% 0 in
02:04 34.7 °F 35.6 °F 29.6 in SSW 3.6 mph 5.8 mph 98% 0 in
02:09 34.7 °F 35.6 °F 29.6 in South 2.2 mph 5.4 mph 98% 0 in
02:14 34.9 °F 35.6 °F 29.6 in SSW 2 mph 4.3 mph 98% 0 in
02:19 35.1 °F 35.6 °F 29.6 in SW 5.4 mph 5.8 mph 98% 0 in
02:24 35.1 °F 35.6 °F 29.6 in Calm   6.5 mph 98% 0 in
02:29 35.1 °F 35.6 °F 29.6 in Calm   6.5 mph 98% 0 in
02:44 35.1 °F 35.6 °F 29.6 in Calm   3.1 mph 98% 0 in
02:49 35.1 °F 35.6 °F 29.6 in Calm   5.6 mph 98% 0 in
03:02 32 °F 35.6 °F 0 in Calm   4 mph 0% 0 in
03:07 35.2 °F 35.6 °F 29.6 in SSW 1.3 mph 5.8 mph 98% 0 in
03:12 35.2 °F 35.6 °F 29.6 in South 3.8 mph 5.8 mph 98% 0 in
03:17 35.2 °F 35.6 °F 29.6 in South 2.9 mph 5.8 mph 98% 0 in
03:22 35.2 °F 35.6 °F 29.6 in Calm   5.8 mph 98% 0 in
03:27 35.2 °F 35.6 °F 29.6 in Calm   4 mph 98% 0 in
03:32 35.4 °F 35.6 °F 29.6 in Calm   4.3 mph 98% 0 in
03:42 35.4 °F 35.6 °F 29.5 in South 3.6 mph 6.3 mph 98% 0 in
03:48 35.4 °F 35.6 °F 29.5 in South 2.5 mph 6.3 mph 98% 0 in
03:53 35.4 °F 35.6 °F 29.5 in Calm   7.4 mph 98% 0 in
03:58 35.6 °F 35.6 °F 29.5 in SSE 4 mph 7.4 mph 98% 0 in
04:03 35.6 °F 35.6 °F 29.5 in South 6.3 mph 8.7 mph 98% 0 in
04:08 35.8 °F 35.6 °F 29.5 in South 7.4 mph 10.7 mph 98% 0 in
04:14 35.8 °F 35.6 °F 29.5 in South 5.8 mph 10.7 mph 98% 0 in
04:19 36 °F 35.6 °F 29.5 in South 6 mph 8.7 mph 98% 0 in
04:22 36 °F 35.6 °F 29.5 in South 5.4 mph 8.7 mph 98% 0 in
04:25 36 °F 35.6 °F 29.5 in South 7.4 mph 8.7 mph 98% 0 in
04:26 36 °F 35.6 °F 29.5 in SSW 6 mph 8.7 mph 98% 0 in
04:31 36.1 °F 37.4 °F 29.5 in South 8.5 mph 10.3 mph 98% 0 in
04:36 36.1 °F 37.4 °F 29.5 in South 8.7 mph 10.3 mph 98% 0 in
04:41 36.3 °F 37.4 °F 29.4 in SSE 8.5 mph 10.1 mph 98% 0 in
04:47 36.3 °F 37.4 °F 29.4 in South 8.7 mph 11 mph 98% 0 in
04:52 36.3 °F 37.4 °F 29.4 in South 6.3 mph 10.7 mph 98% 0 in
04:57 36.3 °F 37.4 °F 29.4 in South 6.3 mph 10.7 mph 98% 0 in
05:02 36.5 °F 37.4 °F 29.4 in SSW 7.4 mph 12.5 mph 98% 0 in
05:07 36.7 °F 37.4 °F 29.4 in South 7.4 mph 12.5 mph 98% 0 in
05:12 36.7 °F 37.4 °F 29.4 in South 8.1 mph 11 mph 98% 0 in
05:17 36.7 °F 37.4 °F 29.4 in SSW 6.3 mph 15.4 mph 98% 0 in
05:22 36.7 °F 37.4 °F 29.4 in South 5.6 mph 15.4 mph 98% 0 in
05:27 36.9 °F 37.4 °F 29.4 in SSW 9.6 mph 11 mph 98% 0 in
05:32 36.9 °F 37.4 °F 29.4 in South 8.5 mph 12.8 mph 98% 0 in
05:37 36.9 °F 37.4 °F 29.4 in South 9.4 mph 12.8 mph 98% 0 in
05:42 36.9 °F 37.4 °F 29.4 in South 6.3 mph 12.8 mph 98% 0 in
05:47 36.9 °F 37.4 °F 29.4 in South 13.4 mph 14.5 mph 98% 0 in
05:52 37 °F 37.4 °F 29.4 in South 6 mph 14.5 mph 98% 0 in
05:57 37 °F 37.4 °F 29.4 in South 9.8 mph 13.4 mph 98% 0 in
06:02 36.9 °F 37.4 °F 29.4 in South 5.4 mph 11 mph 98% 0 in
06:07 36.9 °F 37.4 °F 29.4 in SSE 9.8 mph 14.3 mph 98% 0 in
06:17 36.9 °F 37.4 °F 29.3 in South 7.6 mph 17.2 mph 98% 0.01 in
06:23 36.9 °F 37.4 °F 29.3 in South 7.8 mph 17.2 mph 98% 0.01 in
06:33 36.7 °F 37.4 °F 29.3 in South 10.1 mph 12.8 mph 98% 0.01 in
06:38 36.7 °F 37.4 °F 29.3 in SSE 14.8 mph 14.8 mph 98% 0.02 in
06:43 36.7 °F 37.4 °F 29.3 in SSE 8.1 mph 14.8 mph 98% 0.02 in
06:48 36.7 °F 37.4 °F 29.3 in South 6 mph 17.2 mph 98% 0.02 in
06:53 36.7 °F 37.4 °F 29.3 in SSW 8.7 mph 17.2 mph 98% 0.02 in
07:03 36.5 °F 37.4 °F 29.3 in South 8.9 mph 12.5 mph 98% 0.03 in
07:08 36.3 °F 37.4 °F 29.3 in SSE 12.1 mph 12.8 mph 98% 0.03 in
07:13 36.3 °F 37.4 °F 29.2 in ENE 11.9 mph 12.8 mph 98% 0.04 in
07:18 36.1 °F 37.4 °F 29.2 in SSE 5.6 mph 19.2 mph 98% 0.04 in
07:23 36 °F 35.6 °F 29.2 in SSE 16.6 mph 19.2 mph 98% 0.05 in
07:28 35.8 °F 35.6 °F 29.2 in SSE 8.1 mph 16.6 mph 98% 0.05 in
07:38 35.4 °F 35.6 °F 29.2 in SSE 9.4 mph 12.8 mph 98% 0.05 in
07:42 35.4 °F 35.6 °F 29.1 in South 10.1 mph 15.4 mph 98% 0.06 in
07:47 35.2 °F 35.6 °F 29.1 in SSE 7.4 mph 15.4 mph 98% 0.06 in
07:57 34.9 °F 35.6 °F 29.1 in South 12.5 mph 16.8 mph 98% 0.06 in
08:02 34.7 °F 35.6 °F 29.1 in SSE 9.6 mph 19.2 mph 98% 0.07 in
08:07 34.3 °F 33.8 °F 29.1 in SSE 13 mph 19.2 mph 98% 0.07 in
08:12 34.2 °F 33.8 °F 29.1 in South 6.3 mph 19.7 mph 98% 0.06 in
08:17 34 °F 33.8 °F 29.1 in SSE 12.5 mph 19.7 mph 98% 0.06 in
08:22 34 °F 33.8 °F 29.1 in SE 7.8 mph 15.4 mph 98% 0.05 in
08:27 33.8 °F 33.8 °F 29.1 in SSE 13 mph 15.4 mph 98% 0.05 in
08:32 33.8 °F 33.8 °F 29.1 in SSE 15.9 mph 15.9 mph 98% 0.03 in
08:37 33.8 °F 33.8 °F 29.1 in SE 12.5 mph 15.9 mph 98% 0.03 in
08:42 33.8 °F 33.8 °F 29 in SE 6.3 mph 15.9 mph 98% 0.02 in
08:57 33.8 °F 33.8 °F 29 in SE 11.9 mph 17.2 mph 98% 0.01 in
09:02 33.8 °F 33.8 °F 29 in ESE 9.8 mph 17.2 mph 98% 0 in
09:07 33.6 °F 33.8 °F 29 in SE 10.7 mph 15.7 mph 98% 0 in
09:17 33.6 °F 33.8 °F 29 in SSE 10.5 mph 19.2 mph 98% 0 in
09:18 33.6 °F 33.8 °F 29 in SSE 8.1 mph 19.2 mph 98% 0 in
09:23 33.6 °F 33.8 °F 29 in SE 7.6 mph 14.5 mph 98% 0 in
09:33 33.6 °F 33.8 °F 29 in SSE 7.6 mph 13 mph 98% 0 in
09:38 33.6 °F 33.8 °F 29 in SSE 5.8 mph 15.2 mph 98% 0 in
09:43 33.6 °F 33.8 °F 29 in South 6.5 mph 15.2 mph 98% 0 in
09:53 33.6 °F 33.8 °F 29 in SSE 8.7 mph 13.4 mph 98% 0 in
10:08 33.6 °F 33.8 °F 28.9 in SSE 11 mph 15.2 mph 98% 0 in
10:13 33.6 °F 33.8 °F 28.9 in South 7.4 mph 13.9 mph 98% 0 in
10:18 33.8 °F 33.8 °F 28.9 in South 2.7 mph 16.8 mph 98% 0 in
10:23 33.8 °F 33.8 °F 28.9 in SE 10.3 mph 16.8 mph 98% 0 in
10:28 34 °F 33.8 °F 28.9 in SSE 10.3 mph 14.3 mph 98% 0 in
10:33 34 °F 33.8 °F 28.9 in SE 17.2 mph 17.2 mph 98% 0 in
10:38 34.2 °F 33.8 °F 28.9 in SE 12.3 mph 17.2 mph 98% 0 in
10:43 34.2 °F 33.8 °F 28.9 in South 6.3 mph 17.2 mph 98% 0 in
10:46 34.3 °F 33.8 °F 28.9 in SE 12.3 mph 15.4 mph 98% 0 in
10:52 34.3 °F 33.8 °F 28.9 in SSE 7.8 mph 15.4 mph 98% 0 in
11:02 34.5 °F 33.8 °F 28.9 in SSW 8.5 mph 19.7 mph 98% 0 in
11:07 34.7 °F 35.6 °F 28.9 in SSW 7.6 mph 19.7 mph 98% 0 in
11:17 34.9 °F 35.6 °F 28.8 in South 10.5 mph 24.4 mph 98% 0 in
11:22 35.1 °F 35.6 °F 28.8 in South 15.7 mph 19.9 mph 98% 0 in
11:27 35.1 °F 35.6 °F 28.8 in South 13 mph 22.8 mph 98% 0.01 in
11:32 35.2 °F 35.6 °F 28.8 in South 13.2 mph 22.8 mph 98% 0.02 in
11:37 35.6 °F 35.6 °F 28.8 in South 7.6 mph 19 mph 98% 0.04 in
11:42 35.8 °F 35.6 °F 28.8 in WSW 15.2 mph 21 mph 98% 0.05 in
11:47 36 °F 35.6 °F 28.8 in SSW 12.5 mph 21 mph 98% 0.06 in
11:52 36.3 °F 37.4 °F 28.8 in SSW 10.5 mph 17.7 mph 98% 0.07 in
12:03 36.3 °F 37.4 °F 28.8 in SW 4.9 mph 21.9 mph 98% 0.12 in
12:08 36.5 °F 37.4 °F 28.8 in SW 5.8 mph 11.2 mph 98% 0.15 in
12:13 36.5 °F 37.4 °F 28.8 in South 10.7 mph 16.6 mph 98% 0.2 in
12:18 36.9 °F 37.4 °F 28.8 in SSW 6.5 mph 16.6 mph 98% 0.21 in
12:23 37 °F 37.4 °F 28.8 in SSW 5.6 mph 13 mph 98% 0.23 in
12:28 37.4 °F 37.4 °F 28.8 in SSW 5.4 mph 12.3 mph 98% 0.23 in
12:33 37.9 °F 37.4 °F 28.8 in SW 8.9 mph 12.3 mph 98% 0.23 in
12:38 38.8 °F 39.2 °F 28.8 in WSW 10.5 mph 14.8 mph 98% 0.23 in
12:43 39.4 °F 39.2 °F 28.7 in SW 6.7 mph 14.8 mph 98% 0.23 in
12:48 39.7 °F 39.2 °F 28.7 in SW 14.3 mph 17.4 mph 98% 0.23 in
12:53 40.3 °F 41 °F 28.7 in WSW 11 mph 17.4 mph 98% 0.22 in
12:58 40.6 °F 41 °F 28.7 in WSW 10.3 mph 15.7 mph 98% 0.22 in
13:03 40.6 °F 41 °F 28.7 in West 12.5 mph 15.7 mph 98% 0.2 in
13:08 41 °F 41 °F 28.7 in WSW 15.2 mph 23.9 mph 98% 0.19 in
13:14 41.5 °F 42.8 °F 28.7 in WSW 15.2 mph 23.9 mph 98% 0.16 in
13:19 42.1 °F 42.8 °F 28.7 in West 26.8 mph 27.5 mph 98% 0.16 in
13:24 42.4 °F 42.8 °F 28.7 in WSW 19.9 mph 29.5 mph 98% 0.16 in
13:29 42.8 °F 42.8 °F 28.7 in WSW 29.1 mph 29.5 mph 98% 0.16 in
13:34 43.2 °F 42.8 °F 28.7 in WSW 23.3 mph 34.4 mph 98% 0.16 in
13:44 43.7 °F 44.6 °F 28.7 in WSW 16.3 mph 33.3 mph 98% 0.13 in
13:49 43.9 °F 44.6 °F 28.7 in WSW 18.1 mph 28.4 mph 98% 0.13 in
13:54 44.1 °F 44.6 °F 28.7 in WSW 23 mph 28 mph 98% 0.15 in
14:04 44.8 °F 44.6 °F 28.7 in WSW 15.2 mph 31.1 mph 98% 0.13 in
14:09 44.8 °F 44.6 °F 28.7 in WSW 14.3 mph 27.7 mph 98% 0.13 in
14:14 45.3 °F 44.6 °F 28.7 in WSW 26.6 mph 32 mph 98% 0.12 in
14:19 46.4 °F 46.4 °F 28.7 in WSW 30 mph 35.6 mph 96% 0.11 in
14:34 47.7 °F 44.6 °F 28.7 in WSW 30.9 mph 42.1 mph 85% 0.09 in
14:39 48.2 °F 42.8 °F 28.7 in WSW 33.3 mph 42.1 mph 82% 0.07 in
14:44 48.6 °F 42.8 °F 28.7 in West 27.7 mph 43.8 mph 80% 0.07 in
14:54 48.7 °F 42.8 °F 28.7 in West 27.1 mph 39.8 mph 78% 0.05 in
14:59 48.7 °F 42.8 °F 28.7 in WSW 27.1 mph 42.3 mph 77% 0.03 in
15:09 48.7 °F 42.8 °F 28.7 in WSW 36.9 mph 50.3 mph 78% 0.02 in
15:14 48.7 °F 42.8 °F 28.7 in WSW 36.2 mph 50.3 mph 78% 0.02 in
15:20 48.7 °F 42.8 °F 28.7 in WSW 30.6 mph 36.9 mph 78% 0.01 in
15:25 48.7 °F 42.8 °F 28.7 in West 31.8 mph 36.2 mph 78% 0.01 in
15:30 48.7 °F 42.8 °F 28.7 in WSW 38.5 mph 45.4 mph 78% 0.01 in
15:35 48.7 °F 42.8 °F 28.7 in WSW 27.3 mph 45.4 mph 78% 0 in
15:40 48.7 °F 42.8 °F 28.7 in WSW 41.6 mph 41.6 mph 78% 0 in
15:45 48.6 °F 44.6 °F 28.7 in WSW 32.2 mph 46.5 mph 82% 0 in
15:50 48.2 °F 44.6 °F 28.7 in WSW 31.1 mph 46.5 mph 84% 0 in
15:55 47.8 °F 44.6 °F 28.7 in WSW 22.6 mph 44.3 mph 86% 0.01 in
16:00 47.5 °F 44.6 °F 28.7 in West 20.1 mph 33.3 mph 89% 0.04 in
16:10 46.9 °F 46.4 °F 28.7 in WSW 22.8 mph 30.4 mph 93% 0.07 in
16:15 46.8 °F 44.6 °F 28.7 in WSW 34.7 mph 35.1 mph 94% 0.1 in
16:20 46.4 °F 44.6 °F 28.7 in West 26.8 mph 37.8 mph 94% 0.12 in
16:30 46 °F 44.6 °F 28.7 in West 25.3 mph 32.2 mph 96% 0.13 in
16:35 46 °F 44.6 °F 28.7 in WSW 23.9 mph 35.1 mph 96% 0.13 in
16:40 46 °F 44.6 °F 28.7 in WSW 25.1 mph 39.4 mph 96% 0.15 in
16:46 45.9 °F 44.6 °F 28.7 in West 23.5 mph 39.4 mph 96% 0.15 in
16:56 45.9 °F 44.6 °F 28.8 in West 29.1 mph 33.1 mph 96% 0.13 in
17:03 45.5 °F 44.6 °F 28.8 in WSW 19.9 mph 32.7 mph 95% 0.1 in
17:08 45.5 °F 44.6 °F 28.8 in WSW 26.2 mph 33.8 mph 95% 0.07 in
17:13 45.5 °F 44.6 °F 28.8 in West 29.3 mph 34.7 mph 95% 0.05 in
17:28 45.3 °F 44.6 °F 28.8 in West 26.6 mph 32.2 mph 95% 0.01 in
17:33 45.3 °F 42.8 °F 28.8 in West 24.6 mph 34.4 mph 94% 0.01 in
17:38 45.1 °F 42.8 °F 28.8 in West 28.6 mph 38.5 mph 94% 0 in
17:43 45.3 °F 42.8 °F 28.8 in West 23.9 mph 38.5 mph 93% 0 in
17:48 45.1 °F 42.8 °F 28.8 in West 21.5 mph 34 mph 93% 0 in
17:53 45.1 °F 42.8 °F 28.8 in WSW 18.6 mph 32 mph 92% 0 in
18:03 44.2 °F 41 °F 28.8 in West 15.2 mph 26.4 mph 86% 0 in
18:08 44.1 °F 39.2 °F 28.8 in West 14.5 mph 23.9 mph 83% 0.01 in
18:13 43.7 °F 39.2 °F 28.8 in West 17.2 mph 26.6 mph 82% 0.01 in
18:18 43.5 °F 39.2 °F 28.8 in West 13.6 mph 26.6 mph 83% 0.01 in
18:28 43 °F 39.2 °F 28.9 in West 6 mph 17.7 mph 84% 0.01 in
18:34 42.4 °F 39.2 °F 28.9 in West 7.4 mph 19.9 mph 84% 0.01 in
18:44 41.4 °F 37.4 °F 28.9 in WNW 7.6 mph 12.8 mph 83% 0.01 in
18:49 40.8 °F 35.6 °F 28.9 in WNW 6 mph 13.2 mph 83% 0.01 in
18:54 40.3 °F 35.6 °F 28.9 in WNW 9.2 mph 13.2 mph 82% 0.01 in
18:59 39.7 °F 35.6 °F 28.9 in WNW 6.7 mph 12.8 mph 83% 0.01 in
19:04 39.6 °F 35.6 °F 28.9 in WNW 9.6 mph 14.3 mph 83% 0.01 in
19:09 39.2 °F 35.6 °F 28.9 in West 7.8 mph 14.3 mph 84% 0 in
19:14 39 °F 35.6 °F 28.9 in West 5.6 mph 11.4 mph 85% 0 in
19:19 38.8 °F 35.6 °F 28.9 in West 5.6 mph 10.1 mph 86% 0 in
19:29 38.5 °F 35.6 °F 28.9 in West 9.4 mph 14.5 mph 88% 0 in
19:34 38.5 °F 35.6 °F 28.9 in West 9.4 mph 12.8 mph 88% 0 in
19:39 38.5 °F 35.6 °F 28.9 in West 9.8 mph 14.8 mph 88% 0 in
19:49 38.5 °F 35.6 °F 28.9 in West 9.6 mph 14.8 mph 88% 0 in
19:59 38.3 °F 35.6 °F 28.9 in West 6.3 mph 11 mph 88% 0 in
20:04 38.3 °F 35.6 °F 28.9 in WNW 6.3 mph 9.8 mph 88% 0 in
20:09 38.3 °F 35.6 °F 28.9 in WNW 7.8 mph 11.9 mph 88% 0 in
20:14 38.3 °F 35.6 °F 28.9 in West 11.2 mph 14.3 mph 87% 0 in
20:19 38.3 °F 35.6 °F 28.9 in West 6.7 mph 14.3 mph 86% 0 in
20:25 38.3 °F 35.6 °F 28.9 in West 6 mph 12.5 mph 87% 0 in
20:30 38.3 °F 35.6 °F 28.9 in West 5.4 mph 10.5 mph 87% 0 in
20:32 38.1 °F 35.6 °F 28.9 in West 2.2 mph 10.5 mph 87% 0 in
20:37 38.1 °F 35.6 °F 28.9 in West 8.1 mph 13.4 mph 87% 0 in
20:38 38.1 °F 35.6 °F 28.9 in West 9.2 mph 13.4 mph 87% 0 in
20:43 37.9 °F 35.6 °F 28.9 in West 7.6 mph 16.3 mph 88% 0 in
20:49 37.9 °F 35.6 °F 28.9 in West 8.9 mph 16.3 mph 88% 0 in
20:54 37.8 °F 35.6 °F 28.9 in West 9.6 mph 13 mph 87% 0 in
20:59 37.6 °F 33.8 °F 28.9 in West 8.7 mph 13 mph 88% 0 in
21:04 37.4 °F 33.8 °F 28.9 in West 7.8 mph 12.3 mph 88% 0 in
21:09 37.2 °F 35.6 °F 28.9 in WSW 8.9 mph 12.3 mph 89% 0 in
21:14 37.2 °F 35.6 °F 29 in WSW 8.7 mph 10.7 mph 89% 0 in
21:24 37.4 °F 35.6 °F 29 in West 7.4 mph 13 mph 90% 0 in
21:29 37.4 °F 35.6 °F 29 in WSW 4.5 mph 10.1 mph 90% 0 in
21:34 37.4 °F 35.6 °F 29 in WSW 8.5 mph 10.7 mph 91% 0 in
21:39 37.4 °F 35.6 °F 29 in WSW 8.9 mph 10.7 mph 91% 0 in
21:44 37.6 °F 35.6 °F 28.9 in WSW 6 mph 11 mph 92% 0 in
21:49 37.6 °F 35.6 °F 28.9 in WSW 5.8 mph 11 mph 92% 0 in
21:54 37.6 °F 35.6 °F 28.9 in WSW 6 mph 8.5 mph 92% 0 in
21:59 37.6 °F 35.6 °F 29 in WSW 5.8 mph 8.7 mph 92% 0 in
22:04 37.6 °F 35.6 °F 29 in WSW 5.4 mph 8.7 mph 92% 0 in
22:09 37.6 °F 35.6 °F 29 in WSW 4.9 mph 7.4 mph 92% 0 in
22:14 37.6 °F 35.6 °F 29 in WSW 5.6 mph 6.7 mph 93% 0 in
22:19 37.6 °F 35.6 °F 29 in WSW 4.5 mph 6.7 mph 93% 0 in
22:30 37.4 °F 35.6 °F 29 in WSW 4 mph 6.3 mph 93% 0 in
22:35 37.4 °F 35.6 °F 29 in WSW 1.6 mph 5.8 mph 93% 0 in
22:40 37.4 °F 35.6 °F 29 in SW 4.3 mph 6.3 mph 93% 0 in
22:45 37.4 °F 35.6 °F 29 in SW 4.7 mph 6.3 mph 93% 0 in
22:50 37.4 °F 35.6 °F 29 in SSW 4 mph 6.3 mph 93% 0 in
22:55 37.4 °F 35.6 °F 29 in SSW 2 mph 4.9 mph 93% 0 in
23:00 37.4 °F 35.6 °F 29 in Calm   4.9 mph 93% 0 in
23:05 37.2 °F 35.6 °F 29 in Calm   4 mph 93% 0 in
23:10 37.2 °F 35.6 °F 29 in Calm   4 mph 93% 0 in
23:15 36.9 °F 35.6 °F 29 in Calm     93% 0 in
23:20 36.5 °F 35.6 °F 29 in Calm     92% 0 in
23:25 36.3 °F 33.8 °F 29 in Calm     92% 0 in
23:30 36.1 °F 33.8 °F 29 in SSW 1.1 mph 2.5 mph 92% 0 in
23:35 36.1 °F 35.6 °F 29 in Calm   2.5 mph 93% 0 in
23:40 36 °F 33.8 °F 29 in Calm     93% 0 in
23:45 35.8 °F 33.8 °F 29 in Calm     93% 0 in
23:55 35.4 °F 33.8 °F 29 in Calm   2.2 mph 93% 0 in
Données Historique de Météo Turbie

Mise a jour : 24/05/2018 10:18:14
Généré par Cumulus 1.9.4 (1099)